Location: Casco Volunteer Fire Department
(44.5576°N, 87.6146°W)
Time: 03:57:32
(UTC+00:00)

Cosmos 2369 Rocket - Pass Details

Date: 22 January 2026
Orbit: 826 x 853 km, 71.0° (Epoch: 11 February)

Event Time Altitude Azimuth Distance (km) Brightness Sun altitude
Rises 12:41:00 0° 226° (SW) 3,398 5.1 -7.0°
Reaches altitude 10° 12:43:35 10° 233° (SW) 2,470 4.3 -6.6°
Maximum altitude 12:48:55 41° 303° (WNW) 1,216 2.6 -5.7°
Drops below altitude 10° 12:54:19 10° 14° (NNE) 2,491 4.6 -4.8°
Sets 12:56:56 0° 21° (NNE) 3,431 5.4 -4.4°
